Location: Staunton
(38.1490°N, 79.0720°W)
Time: 00:58:37
(UTC-04:00)

ISS - Pass Details

Date: 20 May 2019
Orbit: 408 x 418 km, 51.6° (Epoch: 27 May)

Event Time Altitude Azimuth Distance (km) Brightness Sun altitude
Rises 21:15:03 0° 240° (WSW) 2,332 0.4 -9.4°
Reaches altitude 10° 21:17:10 10° 244° (WSW) 1,475 -0.6 -9.7°
Maximum altitude 21:20:25 54° 323° (NW) 505 -3.0 -10.2°
Drops below altitude 10° 21:23:42 10° 43° (NE) 1,489 -1.0 -10.8°
Sets 21:25:50 0° 48° (NE) 2,356 -0.1 -11.1°
